{"data":{"norad_id":60259,"intl_designator":"2024-131E","name":"STARLINK-32207","alt_names":[],"object_type":"PAYLOAD","status":"ACTIVE","operator":null,"country":"US","launch_date":"2024-07-27","launch_site_code":"AFETR","launch_vehicle":null,"mission":null,"orbit_class":"UNKNOWN","rcs_meters":null,"size_class":null,"mass_kg":null,"dimensions":null,"purposes":["comms"],"wikipedia_slug":null,"has_3d_model":false,"image_url":null,"decayed_at":null,"tle_current":{"epoch":"2026-09-21T21:40:18.515712Z","epoch_age_seconds":60506,"freshness":"FRESH","line1":"1 60259U 24131E   26264.90299208 -.00000279  00000+0  28680-5 0  9999","line2":"2 60259  53.1580 219.3614 0001261  88.0828 272.0319 15.34384255121789","mean_motion":15.34384255,"eccentricity":0.0001261,"inclination_deg":53.158,"raan_deg":219.3614,"arg_perigee_deg":88.0828,"mean_anomaly_deg":272.0319,"bstar":2.868e-6,"rev_number":12178,"period_min":93.848721094965,"perigee_km":461.88740220989,"apogee_km":463.61267392089,"semimajor_km":6840.8870380654,"source":"CELESTRAK","updated_at":"2026-09-22T09:00:49.186874Z"}}}